Time,TemperatureF,DewpointF,PressureIn,WindDirection,WindDirectionDegrees,WindSpeedMPH,WindSpeedGustMPH,Humidity,HourlyPrecipIn,Conditions,Clouds,dailyrainin,SoftwareType,DateUTC
2013-07-26 00:00:00,61.2,60.9,30.09,West,261,0.0,0.0,99,0.00,,SKC,0.00,VWS V14.01,2013-07-26 04:00:00,
2013-07-26 00:30:00,60.9,60.6,30.08,WSW,241,0.0,0.0,99,0.00,,SKC,0.00,VWS V14.01,2013-07-26 04:30:00,
2013-07-26 01:00:00,60.0,59.4,30.08,NW,305,0.0,0.0,98,0.00,,SKC,0.00,VWS V14.01,2013-07-26 05:00:00,
2013-07-26 01:30:00,59.5,58.9,30.08,NW,306,0.0,0.0,98,0.00,,SKC,0.00,VWS V14.01,2013-07-26 05:30:00,
2013-07-26 02:00:00,58.4,58.1,30.08,NW,306,0.0,0.0,99,0.00,,SKC,0.00,VWS V14.01,2013-07-26 06:00:00,
2013-07-26 02:30:00,59.1,58.8,30.09,NW,306,0.0,0.0,99,0.00,,SKC,0.00,VWS V14.01,2013-07-26 06:30:00,
2013-07-26 03:00:00,58.7,58.4,30.08,NW,308,0.0,0.0,99,0.00,,SKC,0.00,VWS V14.01,2013-07-26 07:00:00,
2013-07-26 03:30:00,58.4,58.1,30.08,NW,308,0.0,0.0,99,0.00,,SKC,0.00,VWS V14.01,2013-07-26 07:30:00,
2013-07-26 04:00:00,57.7,57.4,30.07,NW,308,0.0,0.0,99,0.00,,SKC,0.00,VWS V14.01,2013-07-26 08:00:00,
2013-07-26 04:30:00,57.1,56.8,30.08,NW,308,0.0,0.0,99,0.00,,SKC,0.00,VWS V14.01,2013-07-26 08:30:00,
2013-07-26 05:00:00,57.3,57.0,30.09,NW,308,0.0,0.0,99,0.00,,SKC,0.00,VWS V14.01,2013-07-26 09:00:00,
2013-07-26 05:30:00,56.3,56.0,30.09,NW,308,0.0,0.0,99,0.00,,SKC,0.00,VWS V14.01,2013-07-26 09:30:00,
2013-07-26 06:00:00,55.9,55.6,30.09,NW,308,0.0,0.0,99,0.00,,SKC,0.00,VWS V14.01,2013-07-26 10:00:00,
2013-07-26 06:30:00,56.2,55.9,30.11,NW,308,0.0,0.0,99,0.00,,SKC,0.00,VWS V14.01,2013-07-26 10:30:00,
2013-07-26 07:00:00,56.2,56.2,30.10,NW,308,0.0,0.0,100,0.00,,SKC,0.00,VWS V14.01,2013-07-26 11:00:00,
2013-07-26 07:30:00,56.8,56.8,30.10,NW,309,0.0,0.0,100,0.00,,SKC,0.00,VWS V14.01,2013-07-26 11:30:00,
2013-07-26 08:00:00,59.0,59.0,30.11,NW,309,0.0,0.0,100,0.00,,SKC,0.00,VWS V14.01,2013-07-26 12:00:00,
2013-07-26 08:30:00,62.6,62.6,30.13,NNE,30,0.0,1.0,100,0.00,,SKC,0.00,VWS V14.01,2013-07-26 12:30:00,
2013-07-26 09:00:00,64.8,62.7,30.13,SE,130,0.0,1.0,93,0.00,,SKC,0.00,VWS V14.01,2013-07-26 13:00:00,
2013-07-26 09:30:00,64.3,62.5,30.13,ESE,103,1.0,3.0,94,0.00,,SKC,0.00,VWS V14.01,2013-07-26 13:30:00,
2013-07-26 10:00:00,64.1,62.3,30.13,South,186,1.0,3.0,94,0.00,,SKC,0.00,VWS V14.01,2013-07-26 14:00:00,
2013-07-26 10:30:00,64.4,62.6,30.13,SE,141,0.0,3.0,94,0.00,,SKC,0.00,VWS V14.01,2013-07-26 14:30:00,
2013-07-26 11:00:00,66.4,64.3,30.14,NE,54,0.0,2.0,93,0.00,,SKC,0.00,VWS V14.01,2013-07-26 15:00:00,
2013-07-26 11:30:00,68.9,65.5,30.13,East,101,0.0,7.0,89,0.00,,SKC,0.00,VWS V14.01,2013-07-26 15:30:00,
2013-07-26 12:00:00,70.9,65.8,30.14,SE,141,0.0,2.0,84,0.00,,SKC,0.00,VWS V14.01,2013-07-26 16:00:00,
2013-07-26 12:30:00,72.7,67.6,30.13,East,91,2.0,5.0,84,0.00,,SKC,0.00,VWS V14.01,2013-07-26 16:30:00,
2013-07-26 13:00:00,74.6,66.9,30.13,ESE,121,0.0,7.0,77,0.00,,SKC,0.00,VWS V14.01,2013-07-26 17:00:00,
2013-07-26 13:30:00,75.8,67.3,30.12,East,101,1.0,5.0,75,0.00,,SKC,0.00,VWS V14.01,2013-07-26 17:30:00,
2013-07-26 14:00:00,75.3,68.0,30.11,East,93,1.0,6.0,78,0.00,,SKC,0.00,VWS V14.01,2013-07-26 18:00:00,
2013-07-26 14:30:00,75.3,66.4,30.11,ENE,68,1.0,10.0,74,0.00,,SKC,0.00,VWS V14.01,2013-07-26 18:30:00,
2013-07-26 15:00:00,76.7,68.6,30.09,East,86,2.0,6.0,76,0.00,,SKC,0.00,VWS V14.01,2013-07-26 19:00:00,
2013-07-26 15:30:00,74.9,67.6,30.09,SE,134,1.0,6.0,78,0.00,,SKC,0.00,VWS V14.01,2013-07-26 19:30:00,
2013-07-26 16:00:00,75.2,66.7,30.08,East,80,3.0,10.0,75,0.00,,SKC,0.00,VWS V14.01,2013-07-26 20:00:00,
2013-07-26 16:30:00,73.3,66.4,30.07,East,87,1.0,6.0,79,0.00,,SKC,0.00,VWS V14.01,2013-07-26 20:30:00,
2013-07-26 17:00:00,73.8,66.9,30.07,NE,39,0.0,3.0,79,0.00,,SKC,0.00,VWS V14.01,2013-07-26 21:00:00,
2013-07-26 17:30:00,72.7,66.2,30.07,NE,40,0.0,5.0,80,0.00,,SKC,0.00,VWS V14.01,2013-07-26 21:30:00,
2013-07-26 18:00:00,72.9,66.4,30.06,ENE,63,0.0,2.0,80,0.00,,SKC,0.00,VWS V14.01,2013-07-26 22:00:00,
2013-07-26 18:30:00,72.9,67.4,30.06,WNW,289,0.0,4.0,83,0.00,,SKC,0.00,VWS V14.01,2013-07-26 22:30:00,
2013-07-26 19:00:00,71.5,67.1,30.07,NNE,26,0.0,3.0,86,0.00,,SKC,0.00,VWS V14.01,2013-07-26 23:00:00,
2013-07-26 19:30:00,69.6,66.5,30.06,ESE,123,0.0,2.0,90,0.00,,SKC,0.00,VWS V14.01,2013-07-26 23:30:00,
2013-07-26 20:00:00,69.7,67.0,30.07,NNW,328,0.0,1.0,91,0.00,,SKC,0.00,VWS V14.01,2013-07-27 00:00:00,
2013-07-26 20:30:00,68.0,65.9,30.07,NNE,15,0.0,2.0,93,0.00,,SKC,0.00,VWS V14.01,2013-07-27 00:30:00,
2013-07-26 21:00:00,67.2,65.4,30.07,NNE,28,0.0,1.0,94,0.00,,SKC,0.00,VWS V14.01,2013-07-27 01:00:00,
2013-07-26 21:30:00,67.3,65.5,30.08,ENE,60,0.0,1.0,94,0.00,,SKC,0.00,VWS V14.01,2013-07-27 01:30:00,
2013-07-26 22:00:00,66.8,65.6,30.08,ENE,60,0.0,1.0,96,0.00,,SKC,0.00,VWS V14.01,2013-07-27 02:00:00,
2013-07-26 22:30:00,67.7,66.2,30.08,NNE,20,0.0,3.0,95,0.00,,SKC,0.00,VWS V14.01,2013-07-27 02:30:00,
2013-07-26 23:00:00,67.3,65.8,30.07,NNE,13,0.0,4.0,95,0.00,,SKC,0.00,VWS V14.01,2013-07-27 03:00:00,
2013-07-26 23:30:00,67.5,66.0,30.08,NE,53,0.0,4.0,95,0.00,,SKC,0.00,VWS V14.01,2013-07-27 03:30:00,